Flag for Germany Weather past 2 weeks in Aschaffenburg, Bavaria, Germany

Now
44 °F

Overcast.


Feels Like: 40 °F
Forecast: 40 / 46 °F
Wind: 6 mph from Southwest

Location: Frankfurt / M-Flughafen

Current Time: Dec 21, 2014 at 1:30:54 PM

Latest Report: Dec 21, 2014 at 1:00 PM


Visibility: 25 mi

Pressure: 30.47 "Hg

Humidity: 83%

Dew point: 38 °F

Location of AschaffenburgLocation

Historic Weather in Aschaffenburg — Graph

°F

Aschaffenburg temperature yesterday

Maximum temperature yesterday: 45 °F (at 6:00 PM)
Minimum temperature yesterday: 36 °F (at 7:00 AM)
Average temperature yesterday: 42 °F

Past Weeks' High & Low Weather Summary

 TemperatureHumidityPressure
High57 °F (Dec 18, 9:00 PM)100% (Dec 7, 9:00 AM)30.49 "Hg (Dec 7, 9:00 AM)
Low29 °F (Dec 8, 11:00 PM)67% (Dec 12, 8:00 PM)29.62 "Hg (Dec 12, 6:00 PM)
Average41 °F90%30.06 "Hg
* Reported Dec 6 12:00 Noon — Dec 21 12:00 Noon, Aschaffenburg, Weather by CustomWeather, © 2014

Note: Actual official high and low records may vary slightly from our data, if they occured in-between our weather recording intervals... More about our weather records

Advertising

Aschaffenburg weather history for previous 24 hours

 ConditionsComfort  
Time TempWeatherWind HumidityBarometerVisibility
12:00 PM
Dec 21
43 °FOvercast.5 mph84%30.48 "Hg22 mi
11:00 AM42 °FOvercast.7 mph83%30.49 "Hg22 mi
9:00 AM38 °FPartly sunny.5 mph92%30.47 "Hg19 mi
8:00 AM38 °FPassing clouds.5 mph94%30.47 "Hg19 mi
7:00 AM39 °FOvercast.5 mph93%30.47 "Hg19 mi
6:00 AM37 °FOvercast.5 mph97%30.46 "Hg16 mi
5:00 AM37 °FOvercast.3 mph96%30.44 "Hg22 mi
3:00 AM36 °FPassing clouds.1 mph97%30.42 "Hg16 mi
2:00 AM39 °FPassing clouds.5 mph91%30.40 "Hg25 mi
1:00 AM40 °FSprinkles. Passing clouds.8 mph88%30.38 "Hg9 mi
12:00 AM41 °FQuite cool.9 mph82%30.37 "HgN/A
11:00 PM
Dec 20
41 °FPassing clouds.8 mph82%30.34 "Hg19 mi
9:00 PM44 °FSprinkles. Passing clouds.6 mph80%30.28 "Hg9 mi
8:00 PM44 °FPassing clouds.9 mph72%30.23 "Hg25 mi
7:00 PM45 °FOvercast.10 mph70%30.20 "Hg17 mi
6:00 PM45 °FOvercast.12 mph70%30.18 "Hg17 mi
5:00 PM45 °FOvercast.10 mph71%30.16 "Hg17 mi
4:00 PM44 °FOvercast.9 mph75%30.16 "Hg17 mi
3:00 PM44 °FOvercast.9 mph80%30.16 "Hg17 mi
2:00 PM44 °FLight rain. Overcast.9 mph80%30.17 "Hg15 mi
1:00 PM43 °FSprinkles. Overcast.9 mph83%30.19 "Hg14 mi
Weather by CustomWeather, © 2014

See weather overviewHow to use our weather pages